Regional Weather Roundup
Issued by NWS Cleveland, OH

Home | Current Version | Previous Version | Graphics & Text | Print | Product List | Glossary On
Versions: 1 2 3 4 5 6 7 8 9 10 11 12 13 14 15 16 17 18 19 20 21 22 23 24 25 26 27 28 29 30 31 32 33 34 35 36 37 38 39 40 41 42 43 44 45 46 47 48 49 50
000
ASUS41 KCLE 290110
RWRCLE
OHIO REGIONAL WEATHER ROUNDUP
NATIONAL WEATHER SERVICE CLEVELAND, OH
800 PM EST WED JAN 28 2015

NOTE: "FAIR" INDICATES FEW OR NO CLOUDS BELOW 12,000 FEET WITH NO
SIGNIFICANT WEATHER AND/OR OBSTRUCTIONS TO VISIBILITY.

OHZ001>008-015>018-024>027-034-035-043-044-290200-
   NORTHWEST OHIO

CITY           SKY/WX    TMP DP  RH WIND       PRES   REMARKS
DEFIANCE       PTCLDY    24  14  65 SE7       30.20F WCI  16
FINDLAY        FAIR      23  13  65 SE10      30.22F WCI  12
TOLEDO EXPRESS PTCLDY    21  14  74 SE6       30.22F WCI  13
TOLEDO EXEC    MOCLDY    22  13  68 SE8       30.25F WCI  12
LIMA           PTCLDY    24  15  68 SE14      30.20F WCI  12
$$

OHZ009>014-019>023-028>033-038-089-290200-
   NORTHEAST OHIO

CITY           SKY/WX    TMP DP  RH WIND       PRES   REMARKS
CLE-HOPKINS    CLOUDY    22   9  57 S9        30.31R WCI  12
CLE-LAKEFRONT  MOCLDY    26   9  48 S9        30.28S WCI  17
CUY CO. ARPT   MOCLDY    27  12  54 SW12      30.28S WCI  16
LORAIN-ELYRIA  PTCLDY    20   9  62 S7        30.28R WCI  11
ASHTABULA      MOCLDY    21   2  43 SE7       30.28F WCI  12
AKRON-CANTON   PTCLDY    21   6  52 S8        30.26F WCI  11
WOOSTER        PTCLDY    15   5  64 S6        30.27R WCI   6
MANSFIELD      PTCLDY    22  11  62 S9        30.23S WCI  12
YOUNGSTOWN     CLOUDY    19   5  54 SE7       30.26F WCI  10
$$

OHZ042-051>053-060>062-070>072-077>081-290200-
  SOUTHWEST OHIO

CITY           SKY/WX    TMP DP  RH WIND       PRES   REMARKS
CINC-COVINGTON CLOUDY    31  20  63 SE8       30.23S WCI  23
CINC-LUNKEN    PTCLDY    31  19  61 SE3       30.27S
HAMILTON       PTCLDY    32  20  61 VRB3      30.25S
DAYTON         MOCLDY    28  20  71 SE9       30.22S WCI  19
WRIGHT-PAT AFB PTCLDY    25  19  76 SE5       30.23F WCI  20
DAYTON GENERAL PTCLDY    30  19  63 SE9       30.22S WCI  22
WILMINGTON     FAIR      26  17  68 SE8       30.23F WCI  18
$$

OHZ036-037-039>041-045>050-054>059-063>069-073>076-082>088-290200-
  CENTRAL AND SOUTHEAST OHIO

CITY           SKY/WX    TMP DP  RH WIND       PRES   REMARKS
COLUMBUS       PTCLDY    23  13  65 SE3       30.27S
OSU AIRPORT    PTCLDY    24  14  65 SE7       30.26S WCI  16
BOLTON FIELD   CLEAR     21  15  76 E5        30.26F WCI  15
RICKENBACK AFB CLEAR     21  15  78 E3        30.27F
NEWARK         PTCLDY    18  12  77 CALM      30.27S
MARION         PTCLDY    21   8  57 S9        30.25S WCI  11
LANCASTER      CLEAR     17  13  84 CALM      30.28S
ZANESVILLE     PTCLDY    23  12  62 SE6       30.29S WCI  16
NEW PHILLY     FAIR      21  10  62 CALM      30.30F
$$



USA.gov is the U.S. government's official web portal to all federal, state and local government web resources and services.